SL-16 R/B, 17590

Orbit data source: Space-Track

SL-16 R/B, 17590 is space debris in LEO originally from a launch on Wed, 18 Mar 1987 UTC launched from the Tyuratam Missile And Space Complex (TTMTR). Debris objects in space refer to the collection of defunct objects orbiting the Earth. Examples of debris include non-operational satellites, rocket bodies, and fragments generated from explosions, collisions, or faulty payload assembly.

Loading next visibility...
SL-16 R/B details
Identifier
17590, 1987-027B
Orbit
LEO
Last TLE update9 hours ago
Origin
Flag of CISUNKS (CIS)
ManufacturerYuzhnoe
MissionSpacecraft
Bus & Motor11S772, Unknown motor
Mass9,000 kg wet, 9,000 kg dry
Launch date (UTC)
1987-03-18 (38 years ago)
Launch vehicleUnknown
Launch site
Tyuratam Missile And Space Complex (TTMTR)
Object type
Payload
Rocket body
Debris
Shape & HBRCyl, 10.4 m
Radar Cross Section37.829 m², Large (>1 m²)

Expand to show TLE details & history

TLE from 9 hours ago
0 SL-16 R/B
1 17590U 87027B   24361.27936148  .00000064  00000-0  55497-4 0  9996
2 17590  71.0031 120.2625 0002950  53.0797 307.0597 14.17064334953271
Epoch: 2024-12-26T06:42Z
Definitive object data (Epoch: 2024-12-26T06:42:16.831Z)
Latitude-0.00001°
Longitude-75.56867°
Altitude836.419 km
Speed7.436 km/s
True Right ascension08h 01m 02s
True Declination0° 00' 00"
Sunlit
Object was in full shadow at TLE epoch
Visualization TLE readout
Latitude29.8748°
Longitude92.28191°
Altitude838.731 km
Speed7.436 km/s
Apparent Right ascension22h 25m 10s
Apparent Declination-4° 59' 30"
Sunlit
Object is in daylight
Visualization observer readout
Local Sidereal Time15:14:25
Azimuth82.35° E
Elevation-16.738°
Doppler factor1
Orbital elements
Apogee altitude835.348 km
Perigee altitude831.093 km
Semi-major axis7,211.358 km
Eccentricity0.000295
Inclination71.0031°
RAAN120.2625°
Arg. of periapsis53.0797°
True anomaly307.03272°
Mean anomaly307.0597°
Eccentric anomaly307.04621°
Mean motion3.5442 °/min
BSTAR0.000055497
Orbital period101.57 mins
Loading maneuver chart data...
Loading historical data...
Loading historical data...
Loading historical data...
Loading historical data...
Loading historical data...
Loading historical data...
Loading historical data...

SL-16 R/B Visibility forecast

Observer location: undefined°, undefined

Span
Click to sort rows by Start time (UTC) header in descending order
Start Az.
Max El. time (UTC)
Max El. Az.
Max El.
End time (UTC)
End Az.
9 mins2024-12-26 19:08:20.591Z345.37° N2024-12-26 19:12:20.591Z75.392° E42.882°2024-12-26 19:17:20.591Z148.045° SSE
4 mins2024-12-26 20:54:20.591Z275.236° WNW2024-12-26 20:55:20.591Z263.071° W14.711°2024-12-26 20:58:20.591Z229.517° WSW
6 mins2024-12-27 08:15:20.591Z133.212° SE2024-12-27 08:18:20.591Z93.67° ESE18.702°2024-12-27 08:21:20.591Z58.832° ENE
9 mins2024-12-27 09:57:20.591Z225.148° WSW2024-12-27 10:01:20.591Z297.722° NW38.719°2024-12-27 10:06:20.591Z12.852° NNE
|